When you browse on this site, cookies collect data to enhance your experience and personalize the content and advertising you see.
Visit our Privacy Policy to learn more. By continuing to use the site, you agree to this use of cookies and data.
  • In United Kingdom
  • List of Countries
  • For 7 days
  • Water Temperature
  • Weather Map
  • Weather Widgets
  • user-avatar
    Login

    Hourly Weather Dej

    Today, 23 September, Monday

    Time Temperature Precipitation Wind Pressure Humidity
    00:00 +11°C° 0 mm 1 mps 737 mmHg 55%
    01:00 +10°C° 0 mm 1 mps 737 mmHg 56%
    02:00 +10°C° 0 mm 1 mps 737 mmHg 58%
    03:00 +10°C° 0 mm 1 mps 737 mmHg 59%
    04:00 +10°C° 0 mm 1 mps 737 mmHg 60%
    05:00 +9°C° 0 mm 1 mps 736 mmHg 62%
    06:00 +11°C° 0 mm 1 mps 736 mmHg 57%
    07:00 +12°C° 0 mm 1 mps 736 mmHg 53%
    08:00 +14°C° 0 mm 1 mps 736 mmHg 49%
    09:00 +16°C° 0 mm 1 mps 736 mmHg 43%
    10:00 +20°C° 0 mm 1 mps 736 mmHg 36%
    11:00 +21°C° 0 mm 2 mps 736 mmHg 30%
    12:00 +23°C° 0 mm 1 mps 736 mmHg 28%
    13:00 +24°C° 0 mm 1 mps 736 mmHg 25%
    14:00 +25°C° 0 mm 1 mps 736 mmHg 23%
    15:00 +25°C° 0 mm 1 mps 735 mmHg 24%
    16:00 +24°C° 0 mm 1 mps 735 mmHg 26%
    17:00 +24°C° 0 mm 1 mps 735 mmHg 27%
    18:00 +22°C° 0 mm 1 mps 735 mmHg 32%
    19:00 +20°C° 0 mm 1 mps 735 mmHg 36%
    20:00 +19°C° 0 mm 1 mps 735 mmHg 41%
    21:00 +18°C° 0 mm 1 mps 735 mmHg 43%
    22:00 +18°C° 0 mm 1 mps 735 mmHg 46%
    23:00 +16°C° 0 mm 1 mps 735 mmHg 48%

    Tomorrow, 24 September, Tuesday

    Time Temperature Precipitation Wind Pressure Humidity
    00:00 +16°C° 0 mm 1 mps 735 mmHg 48%
    01:00 +16°C° 0 mm 1 mps 735 mmHg 48%
    02:00 +16°C° 0 mm 1 mps 735 mmHg 48%
    03:00 +16°C° 0 mm 1 mps 735 mmHg 49%
    04:00 +16°C° 0 mm 1 mps 735 mmHg 49%
    05:00 +16°C° 0 mm 1 mps 734 mmHg 50%
    06:00 +16°C° 0 mm 1 mps 735 mmHg 50%
    07:00 +18°C° 0 mm 1 mps 735 mmHg 50%
    08:00 +18°C° 0 mm 1 mps 735 mmHg 51%
    09:00 +18°C° 0 mm 1 mps 735 mmHg 51%
    10:00 +18°C° 0 mm 2 mps 735 mmHg 50%
    11:00 +19°C° 0 mm 2 mps 735 mmHg 50%
    12:00 +19°C° 0 mm 3 mps 734 mmHg 50%
    13:00 +19°C° 0 mm 3 mps 734 mmHg 49%
    14:00 +19°C° 0 mm 3 mps 734 mmHg 49%
    15:00 +18°C° 0 mm 3 mps 734 mmHg 50%
    16:00 +18°C° 0 mm 3 mps 734 mmHg 52%
    17:00 +18°C° 0 mm 2 mps 734 mmHg 53%
    18:00 +17°C° 0 mm 2 mps 734 mmHg 59%
    19:00 +15°C° 0 mm 1 mps 734 mmHg 65%
    20:00 +14°C° 0 mm 1 mps 734 mmHg 70%
    21:00 +14°C° 0 mm 1 mps 735 mmHg 73%
    22:00 +13°C° 0 mm 1 mps 735 mmHg 75%
    23:00 +13°C° 0 mm 1 mps 735 mmHg 78%

    Day after tomorrow, 25 September, Wednesday

    Time Temperature Precipitation Wind Pressure Humidity
    00:00 +11°C° 0 mm 0 mps 735 mmHg 78%
    01:00 +11°C° 0 mm 0 mps 735 mmHg 79%
    02:00 +11°C° 0 mm 0 mps 735 mmHg 79%
    03:00 +11°C° 0 mm 0 mps 735 mmHg 79%
    04:00 +11°C° 0 mm 0 mps 735 mmHg 78%
    05:00 +11°C° 0 mm 0 mps 735 mmHg 78%
    06:00 +12°C° 0 mm 0 mps 734 mmHg 74%
    07:00 +14°C° 0 mm 1 mps 734 mmHg 70%
    08:00 +14°C° 0 mm 1 mps 734 mmHg 67%
    09:00 +15°C° 0.1 mm 1 mps 734 mmHg 65%
    10:00 +16°C° 0.1 mm 1 mps 735 mmHg 64%
    11:00 +18°C° 0.1 mm 1 mps 735 mmHg 62%
    12:00 +16°C° 0.3 mm 1 mps 735 mmHg 69%
    13:00 +15°C° 0.3 mm 1 mps 734 mmHg 76%
    14:00 +15°C° 0.3 mm 1 mps 734 mmHg 83%
    15:00 +14°C° 0.2 mm 1 mps 734 mmHg 86%
    16:00 +13°C° 0.2 mm 0 mps 734 mmHg 88%
    17:00 +13°C° 0.2 mm 0 mps 734 mmHg 91%
    18:00 +13°C° 0.3 mm 0 mps 734 mmHg 92%
    19:00 +13°C° 0.3 mm 0 mps 734 mmHg 93%
    20:00 +12°C° 0.3 mm 0 mps 734 mmHg 94%
    21:00 +12°C° 0.6 mm 0 mps 734 mmHg 95%
    22:00 +12°C° 0.6 mm 0 mps 734 mmHg 96%
    23:00 +12°C° 0.6 mm 0 mps 734 mmHg 97%

    26 September, Thursday

    Time Temperature Precipitation Wind Pressure Humidity
    00:00 +12°C° 0.7 mm 0 mps 734 mmHg 97%
    01:00 +12°C° 0.7 mm 0 mps 734 mmHg 97%
    02:00 +12°C° 0.7 mm 0 mps 734 mmHg 98%
    03:00 +12°C° 0.2 mm 0 mps 734 mmHg 97%
    04:00 +12°C° 0.2 mm 0 mps 734 mmHg 97%
    05:00 +12°C° 0.2 mm 0 mps 734 mmHg 97%
    06:00 +13°C° 0.3 mm 0 mps 734 mmHg 97%
    07:00 +13°C° 0.3 mm 0 mps 734 mmHg 96%
    08:00 +13°C° 0.3 mm 0 mps 734 mmHg 96%
    09:00 +13°C° 0.4 mm 0 mps 734 mmHg 95%
    10:00 +14°C° 0.4 mm 0 mps 735 mmHg 93%
    11:00 +15°C° 0.4 mm 1 mps 735 mmHg 92%
    12:00 +15°C° 0.2 mm 1 mps 735 mmHg 91%
    13:00 +15°C° 0.2 mm 1 mps 735 mmHg 90%
    14:00 +16°C° 0.2 mm 1 mps 735 mmHg 88%
    15:00 +16°C° 0 mm 2 mps 735 mmHg 87%
    16:00 +16°C° 0 mm 2 mps 735 mmHg 85%
    17:00 +16°C° 0 mm 2 mps 735 mmHg 84%
    18:00 +15°C° 0 mm 2 mps 735 mmHg 87%
    19:00 +14°C° 0 mm 2 mps 736 mmHg 91%
    20:00 +13°C° 0 mm 1 mps 736 mmHg 95%
    21:00 +13°C° 0 mm 1 mps 736 mmHg 95%
    22:00 +12°C° 0 mm 1 mps 736 mmHg 96%
    23:00 +12°C° 0 mm 1 mps 737 mmHg 96%

    27 September, Friday

    Time Temperature Precipitation Wind Pressure Humidity
    00:00 +12°C° 0 mm 1 mps 737 mmHg 96%
    01:00 +11°C° 0 mm 1 mps 737 mmHg 96%
    02:00 +11°C° 0 mm 1 mps 737 mmHg 96%
    03:00 +11°C° 0 mm 1 mps 737 mmHg 96%
    04:00 +11°C° 0 mm 1 mps 738 mmHg 96%
    05:00 +10°C° 0 mm 0 mps 738 mmHg 96%
    06:00 +10°C° 0 mm 0 mps 738 mmHg 94%
    07:00 +11°C° 0 mm 0 mps 738 mmHg 91%
    08:00 +12°C° 0 mm 0 mps 738 mmHg 89%
    09:00 +14°C° 0 mm 0 mps 738 mmHg 81%
    10:00 +18°C° 0 mm 1 mps 739 mmHg 73%
    11:00 +19°C° 0 mm 1 mps 739 mmHg 64%
    12:00 +20°C° 0 mm 1 mps 739 mmHg 58%
    13:00 +21°C° 0 mm 1 mps 739 mmHg 53%
    14:00 +21°C° 0 mm 2 mps 738 mmHg 47%
    15:00 +22°C° 0 mm 1 mps 738 mmHg 48%
    16:00 +22°C° 0 mm 1 mps 738 mmHg 49%
    17:00 +22°C° 0 mm 1 mps 738 mmHg 50%
    18:00 +20°C° 0 mm 1 mps 738 mmHg 55%
    19:00 +18°C° 0 mm 1 mps 739 mmHg 60%
    20:00 +16°C° 0 mm 1 mps 739 mmHg 65%
    21:00 +15°C° 0 mm 1 mps 739 mmHg 68%
    22:00 +14°C° 0 mm 1 mps 739 mmHg 72%
    23:00 +13°C° 0 mm 1 mps 739 mmHg 75%

    28 September, Saturday

    Time Temperature Precipitation Wind Pressure Humidity
    00:00 +13°C° 0 mm 1 mps 739 mmHg 77%
    01:00 +13°C° 0 mm 1 mps 739 mmHg 79%
    02:00 +13°C° 0 mm 1 mps 739 mmHg 80%
    03:00 +12°C° 0 mm 1 mps 739 mmHg 82%
    04:00 +12°C° 0 mm 1 mps 739 mmHg 84%
    05:00 +11°C° 0 mm 1 mps 739 mmHg 86%
    06:00 +12°C° 0 mm 1 mps 739 mmHg 82%
    07:00 +13°C° 0 mm 1 mps 738 mmHg 77%
    08:00 +14°C° 0 mm 1 mps 738 mmHg 72%
    09:00 +16°C° 0 mm 2 mps 738 mmHg 65%
    10:00 +18°C° 0 mm 2 mps 738 mmHg 57%
    11:00 +20°C° 0 mm 3 mps 739 mmHg 50%
    12:00 +21°C° 0 mm 2 mps 738 mmHg 46%
    13:00 +23°C° 0 mm 2 mps 738 mmHg 43%
    14:00 +24°C° 0 mm 2 mps 738 mmHg 40%
    15:00 +24°C° 0 mm 1 mps 737 mmHg 42%
    16:00 +24°C° 0 mm 1 mps 737 mmHg 44%
    17:00 +21°C° 0 mm 0 mps 737 mmHg 46%
    18:00 +20°C° 0 mm 0 mps 737 mmHg 50%
    19:00 +20°C° 0 mm 1 mps 737 mmHg 53%
    20:00 +18°C° 0 mm 1 mps 737 mmHg 57%
    21:00 +18°C° 0 mm 1 mps 737 mmHg 59%
    22:00 +16°C° 0 mm 1 mps 736 mmHg 61%
    23:00 +15°C° 0 mm 1 mps 736 mmHg 63%
    Show more